{"data":{"norad_id":64834,"epoch":"2026-05-25T04:28:13.784160Z","epoch_age_seconds":69216,"freshness":"FRESH","line1":"1 64834U 25151U   26145.18627065  .00001252  00000+0  19314-3 0  9992","line2":"2 64834  51.9003 307.3266 0000642 102.5111 257.5923 14.79934679 46849","mean_motion":14.79934679,"eccentricity":6.42e-5,"inclination_deg":51.9003,"raan_deg":307.3266,"arg_perigee_deg":102.5111,"mean_anomaly_deg":257.5923,"bstar":0.00019314,"rev_number":4684,"period_min":97.301591781944,"perigee_km":629.08043675054,"apogee_km":629.98022123558,"semimajor_km":7007.6673289931,"source":"CELESTRAK","updated_at":"2026-05-25T13:38:04.826905Z"}}